This is the latest recevied weather packets stored in our database for station/object N8JE-13. If no packets are shown the sender has not sent any weather packets the latest 10 day(s).
| Time | Temp. | Humidity | Pressure | Rain* | Wind** | Luminosity | Snow |
|---|---|---|---|---|---|---|---|
| 1778025351 | 15° C | 94% | 1005.8 hPa | 3.81 mm | - | - | - |
| 1778025051 | 15° C | 94% | 1005.9 hPa | 4.57 mm | - | - | - |
| 1778024751 | 15° C | 94% | 1005.9 hPa | 4.57 mm | - | - | - |
| 1778024452 | 15° C | 94% | 1005.9 hPa | 4.83 mm | - | - | - |
| 1778024152 | 15° C | 94% | 1005.8 hPa | 5.33 mm | - | - | - |
| 1778023851 | 15° C | 94% | 1005.9 hPa | 5.84 mm | - | - | - |
| 1778023551 | 15° C | 94% | 1006.1 hPa | 5.59 mm | - | - | - |
| 1778023251 | 15° C | 94% | 1006.1 hPa | 5.59 mm | - | - | - |
| 1778022951 | 15° C | 94% | 1006.2 hPa | 5.59 mm | - | - | - |
| 1778022652 | 15° C | 94% | 1006.2 hPa | 5.59 mm | - | - | - |
| 1778022351 | 15° C | 94% | 1006.2 hPa | 5.59 mm | - | - | - |
| 1778022051 | 15° C | 94% | 1006.4 hPa | 5.08 mm | - | - | - |
| 1778021751 | 15° C | 94% | 1006.4 hPa | 4.32 mm | - | - | - |
| 1778021451 | 15° C | 94% | 1006.5 hPa | 3.56 mm | - | - | - |
| 1778021151 | 15° C | 94% | 1006.6 hPa | 3.3 mm | - | - | - |
| 1778020851 | 15° C | 94% | 1006.5 hPa | 3.05 mm | - | - | - |
| 1778020551 | 15° C | 94% | 1006.6 hPa | 2.29 mm | - | - | - |
| 1778020252 | 15° C | 94% | 1006.6 hPa | 1.52 mm | - | - | - |
| 1778019951 | 15° C | 94% | 1006.6 hPa | 1.52 mm | - | - | - |
| 1778019651 | 15° C | 93% | 1006.7 hPa | 1.02 mm | - | - | - |
| 1778019351 | 15.56° C | 93% | 1006.7 hPa | 0.76 mm | - | - | - |
| 1778019052 | 15.56° C | 93% | 1006.8 hPa | 0.51 mm | - | - | - |
| 1778018751 | 15° C | 93% | 1006.8 hPa | 0.51 mm | - | - | - |
| 1778018451 | 15.56° C | 93% | 1006.8 hPa | 0.51 mm | - | - | - |
| 1778018152 | 15.56° C | 93% | 1006.7 hPa | 0.76 mm | - | - | - |
* Rain latest hour (hover to see other rain measurements)
** Current wind speed in m/s (hover to see current wind gust speed)